Location: 5810 Zion Rd, Cleves, OH 45002, USA
(39.1922°N, 84.7113°W)
Time: 16:55:35
(UTC-05:00)

Courier 1B - All Passes

Search period start: 05 December 2019 00:00
Search period end: 15 December 2019 00:00
Orbit: 963 x 1209 km, 28.3° (Epoch: 05 December)

Date Brightness Start Highest point End Pass type
(mag) Time Alt. Az. Time Alt. Az. Time Alt. Az.
05 Dec - 01:37:29 10° WSW 01:44:33 37° S 01:51:31 10° ESE night (unlit)
05 Dec - 03:31:30 10° WSW 03:38:10 31° SSW 03:44:39 10° SE visible
05 Dec - 05:27:08 10° WSW 05:31:27 16° SSW 05:35:39 10° S visible
05 Dec - 22:51:27 10° SSW 22:57:14 23° SSE 23:03:07 10° ESE night (unlit)
06 Dec - 00:43:47 10° WSW 00:50:45 36° S 00:57:42 10° ESE night (unlit)
06 Dec - 02:37:30 10° WSW 02:44:25 34° S 02:51:11 10° SE visible
06 Dec - 04:32:26 10° WSW 04:37:49 20° SSW 04:43:04 10° SSE visible
06 Dec - 21:58:33 10° SSW 22:03:34 19° SSE 22:08:40 10° ESE night (unlit)
06 Dec - 23:50:11 10° SW 23:56:57 33° S 00:03:48 10° ESE night (unlit)
07 Dec - 01:43:36 10° WSW 01:50:37 36° S 01:57:35 10° ESE night (unlit)
07 Dec - 03:38:04 10° WSW 03:44:08 25° SSW 03:50:05 10° SSE visible
07 Dec - 21:06:09 10° S 21:09:57 15° SSE 21:13:49 10° ESE visible
07 Dec - 22:56:46 10° SW 23:03:11 30° SSE 23:09:47 10° ESE night (unlit)
08 Dec - 00:49:48 10° WSW 00:56:48 37° S 01:03:52 10° ESE night (unlit)
08 Dec - 02:43:55 10° WSW 02:50:25 29° SSW 02:56:51 10° SE visible
08 Dec - 04:40:14 10° SW 04:43:40 13° SSW 04:47:04 10° S visible
08 Dec - 20:15:18 10° SSE 20:16:22 10° SSE 20:17:26 10° SE visible
08 Dec - 22:03:30 10° SW 22:09:28 26° SSE 22:15:38 10° ESE night (unlit)
08 Dec - 23:56:06 10° WSW 00:03:00 37° S 00:10:03 10° ESE night (unlit)
09 Dec - 01:49:55 10° WSW 01:56:39 32° SSW 02:03:25 10° SE night (unlit)
09 Dec - 03:45:12 10° WSW 03:50:02 18° SSW 03:54:50 10° SSE visible
09 Dec - 21:10:29 10° SSW 21:15:49 22° SSE 21:21:19 10° ESE visible
09 Dec - 23:02:31 10° SW 23:09:13 35° S 23:16:08 10° ESE night (unlit)
10 Dec - 00:56:01 10° WSW 01:02:52 35° S 01:09:49 10° SE night (unlit)
10 Dec - 02:50:42 10° WSW 02:56:22 22° SSW 03:02:00 10° SSE night (unlit)
10 Dec - 20:17:48 10° SSW 20:22:12 17° SSE 20:26:44 10° ESE visible
10 Dec - 22:09:03 10° SW 22:15:28 32° SSE 22:22:09 10° ESE visible
11 Dec - 00:02:14 10° WSW 00:09:05 36° S 00:16:06 10° ESE night (unlit)
11 Dec - 01:56:28 10° WSW 02:02:39 26° SSW 02:08:51 10° SE night (unlit)
11 Dec - 03:54:19 10° SW 03:55:52 11° SSW 03:57:26 10° SSW visible
11 Dec - 19:25:47 10° S 19:28:39 13° SSE 19:31:35 10° SE visible
11 Dec - 21:15:45 10° SW 21:21:46 28° SSE 21:28:03 10° ESE visible
11 Dec - 23:08:33 10° WSW 23:15:17 37° S 23:22:17 10° ESE night (unlit)
12 Dec - 01:02:27 10° WSW 01:08:54 30° SSW 01:15:28 10° SE night (unlit)
12 Dec - 02:58:17 10° WSW 03:02:15 15° SSW 03:06:12 10° S night (unlit)
12 Dec - 20:22:39 10° SSW 20:28:07 24° SSE 20:33:50 10° ESE visible
12 Dec - 22:14:58 10° WSW 22:21:31 36° S 22:28:24 10° ESE visible
13 Dec - 00:08:33 10° WSW 00:15:09 33° S 00:21:55 10° SE night (unlit)
13 Dec - 02:03:32 10° WSW 02:08:34 19° SSW 02:13:39 10° SSE night (unlit)
13 Dec - 19:29:47 10° SSW 19:34:32 19° SSE 19:39:27 10° ESE visible
13 Dec - 21:21:30 10° SW 21:27:48 33° S 21:34:25 10° ESE visible
13 Dec - 23:14:47 10° WSW 23:21:23 35° S 23:28:14 10° SE night (unlit)
14 Dec - 01:09:13 10° WSW 01:14:53 23° SSW 01:20:39 10° SSE night (unlit)
14 Dec - 18:37:20 10° S 18:41:00 15° SSE 18:44:45 10° ESE visible
14 Dec - 20:28:10 10° SW 20:34:07 30° SSE 20:40:24 10° ESE visible
14 Dec - 22:21:07 10° WSW 22:27:38 36° S 22:34:27 10° ESE visible
